SAS401 BIKF-ENSB

Flight info

Callsign SAS401
Flight time N/A
Altitude 35000
Route LUTER2A LUTER DCT 66N010W 73N000W/N0460F350 DCT INPAR
Aircraft B738/M-SDE2E3FGHIRWXY/LB1

Departure

Time N/A
Airport Keflavik International Airport (BIKF)

Arrival

Time 2026-05-05 07:24
Airport Svalbard Airport, Longyear (ENSB)
Time Latitude Longitude Altitude Speed Heading
2026-05-05 06:59 76.67049 8.60619 37114 ft 442 kts 36°
2026-05-05 07:00 76.72034 8.76247 37103 ft 442 kts 36°
2026-05-05 07:00 76.77024 8.92035 37112 ft 444 kts 36°
2026-05-05 07:01 76.82031 9.08026 37112 ft 447 kts 36°
2026-05-05 07:01 76.87059 9.24242 37072 ft 451 kts 36°
2026-05-05 07:01 76.89605 9.32507 36598 ft 456 kts 36°
2026-05-05 07:02 76.92141 9.40788 36112 ft 451 kts 36°
2026-05-05 07:02 76.94662 9.49056 35412 ft 452 kts 36°
2026-05-05 07:02 76.97158 9.57279 34784 ft 452 kts 36°
2026-05-05 07:02 76.99580 9.65297 34137 ft 453 kts 36°
2026-05-05 07:03 77.02100 9.73681 33348 ft 452 kts 36°
2026-05-05 07:03 77.04200 9.80700 32746 ft 451 kts 36°
2026-05-05 07:03 77.06696 9.89077 32049 ft 449 kts 37°
2026-05-05 07:03 77.09184 9.97468 31328 ft 447 kts 37°
2026-05-05 07:04 77.11660 10.05862 30599 ft 446 kts 37°
2026-05-05 07:04 77.14127 10.14266 29793 ft 445 kts 38°
2026-05-05 07:04 77.16581 10.22665 28926 ft 442 kts 38°
2026-05-05 07:04 77.19023 10.31064 28102 ft 439 kts 38°
2026-05-05 07:05 77.21440 10.39416 27270 ft 436 kts 38°
2026-05-05 07:05 77.23840 10.47747 26460 ft 434 kts 38°
2026-05-05 07:05 77.26212 10.56021 25893 ft 426 kts 38°
2026-05-05 07:05 77.28535 10.64165 25305 ft 419 kts 38°
2026-05-05 07:06 77.30830 10.72249 24713 ft 413 kts 38°
2026-05-05 07:06 77.33061 10.80139 24126 ft 408 kts 38°
2026-05-05 07:06 77.35313 10.88145 23507 ft 403 kts 38°
2026-05-05 07:06 77.37483 10.95893 22866 ft 397 kts 39°
2026-05-05 07:07 77.39639 11.03633 22305 ft 390 kts 39°
2026-05-05 07:07 77.41757 11.11259 21749 ft 383 kts 39°
2026-05-05 07:07 77.43837 11.18776 21204 ft 377 kts 39°
2026-05-05 07:07 77.45880 11.26193 20662 ft 372 kts 39°
2026-05-05 07:08 77.47898 11.33551 20134 ft 367 kts 39°
2026-05-05 07:08 77.49887 11.40834 19601 ft 362 kts 39°
2026-05-05 07:08 77.51821 11.47949 19081 ft 358 kts 39°
2026-05-05 07:08 77.53754 11.55083 18564 ft 354 kts 39°
2026-05-05 07:09 77.55665 11.62168 17991 ft 350 kts 39°
2026-05-05 07:09 77.57560 11.69221 17353 ft 350 kts 39°
2026-05-05 07:09 77.59455 11.76305 16788 ft 347 kts 39°
2026-05-05 07:09 77.61346 11.83400 16276 ft 352 kts 39°
2026-05-05 07:10 77.63266 11.90635 15740 ft 356 kts 39°
2026-05-05 07:10 77.65184 11.97886 15217 ft 352 kts 39°
2026-05-05 07:10 77.67064 12.05025 14711 ft 346 kts 39°
2026-05-05 07:10 77.68894 12.12002 14219 ft 340 kts 39°
2026-05-05 07:11 77.70716 12.18975 13694 ft 336 kts 39°
2026-05-05 07:11 77.72509 12.25861 13195 ft 330 kts 39°
2026-05-05 07:11 77.74293 12.32740 12706 ft 325 kts 39°
2026-05-05 07:11 77.76013 12.39398 12272 ft 323 kts 39°
2026-05-05 07:12 77.77745 12.46126 11817 ft 323 kts 39°
2026-05-05 07:12 77.79492 12.52939 11304 ft 331 kts 40°
2026-05-05 07:12 77.81303 12.60032 10922 ft 344 kts 40°
2026-05-05 07:12 77.83162 12.67339 10533 ft 349 kts 40°
2026-05-05 07:13 77.85023 12.74685 10140 ft 345 kts 40°
2026-05-05 07:13 77.86865 12.81983 9720 ft 343 kts 40°
2026-05-05 07:13 77.88687 12.89228 9298 ft 340 kts 40°
2026-05-05 07:13 77.90497 12.96459 8875 ft 338 kts 40°
2026-05-05 07:14 77.92292 13.03658 8542 ft 334 kts 40°
2026-05-05 07:14 77.94059 13.10772 8245 ft 331 kts 40°
2026-05-05 07:14 77.95788 13.17758 7949 ft 329 kts 40°
2026-05-05 07:14 77.97531 13.24830 7657 ft 327 kts 41°
2026-05-05 07:15 77.99266 13.31897 7362 ft 326 kts 41°
2026-05-05 07:15 78.00995 13.38956 7070 ft 326 kts 41°
2026-05-05 07:15 78.02721 13.46029 6791 ft 325 kts 41°
2026-05-05 07:15 78.04442 13.53122 6501 ft 325 kts 41°
2026-05-05 07:16 78.06153 13.60197 6207 ft 324 kts 41°
2026-05-05 07:16 78.07871 13.67185 5949 ft 321 kts 40°
2026-05-05 07:16 78.09585 13.74082 5709 ft 318 kts 40°
2026-05-05 07:16 78.11280 13.80907 5463 ft 316 kts 40°
2026-05-05 07:17 78.12943 13.87627 5188 ft 302 kts 41°
2026-05-05 07:17 78.14496 13.93928 4870 ft 281 kts 41°
2026-05-05 07:17 78.15950 13.99857 4540 ft 264 kts 41°
2026-05-05 07:17 78.17319 14.05463 4214 ft 250 kts 41°
2026-05-05 07:18 78.18603 14.10740 3902 ft 239 kts 41°
2026-05-05 07:18 78.19847 14.15869 3605 ft 229 kts 41°
2026-05-05 07:18 78.21051 14.20843 3395 ft 224 kts 40°
2026-05-05 07:18 78.22226 14.25717 3186 ft 219 kts 40°
2026-05-05 07:19 78.23364 14.30433 3104 ft 210 kts 40°
2026-05-05 07:19 78.24469 14.35026 3105 ft 207 kts 41°
2026-05-05 07:19 78.25561 14.39592 3100 ft 206 kts 41°
2026-05-05 07:19 78.26655 14.44177 3106 ft 207 kts 41°
2026-05-05 07:20 78.27758 14.48806 3096 ft 208 kts 41°
2026-05-05 07:20 78.28777 14.53857 3078 ft 210 kts 59°
2026-05-05 07:20 78.29048 14.60861 3112 ft 214 kts 89°
2026-05-05 07:20 78.28903 14.68195 3092 ft 217 kts 94°
2026-05-05 07:21 78.28643 14.75692 2795 ft 225 kts 98°
2026-05-05 07:21 78.28239 14.83039 2512 ft 219 kts 102°
2026-05-05 07:21 78.27823 14.89993 2245 ft 205 kts 101°
2026-05-05 07:21 78.27444 14.96521 1956 ft 192 kts 101°
2026-05-05 07:22 78.27101 15.02494 1694 ft 176 kts 101°
2026-05-05 07:22 78.26786 15.07978 1478 ft 159 kts 101°
2026-05-05 07:22 78.26507 15.12855 1282 ft 141 kts 100°
2026-05-05 07:22 78.26252 15.17364 1127 ft 136 kts 101°
2026-05-05 07:23 78.25999 15.21814 954 ft 134 kts 101°
2026-05-05 07:23 78.25751 15.26185 786 ft 132 kts 102°
2026-05-05 07:23 78.25491 15.30585 602 ft 135 kts 102°
2026-05-05 07:23 78.25257 15.34996 435 ft 133 kts 99°
2026-05-05 07:24 78.25014 15.39366 241 ft 132 kts 102°
2026-05-05 07:24 78.24776 15.43612 99 ft 124 kts 101°
2026-05-05 07:24 78.24573 15.47301 88 ft 97 kts 106°
2026-05-05 07:24 78.24448 15.49548 88 ft 12 kts 106°
2026-05-05 07:25 78.24473 15.49837 90 ft 5 kts 18°
2026-05-05 07:25 78.24507 15.49887 87 ft 5 kts 14°
2026-05-05 07:25 78.24541 15.49923 88 ft 5 kts
2026-05-05 07:25 78.24566 15.49783 87 ft 8 kts 291°
2026-05-05 07:26 78.24590 15.49509 88 ft 9 kts 313°
2026-05-05 07:26 78.24612 15.49558 88 ft 2 kts 102°
2026-05-05 07:26 78.24605 15.49690 90 ft 3 kts 104°
2026-05-05 07:26 78.24599 15.49802 89 ft 3 kts 105°
2026-05-05 07:27 78.24599 15.49810 88 ft 0 kts 105°
2026-05-05 07:27 78.24598 15.49823 88 ft 0 kts 105°